Weather Roundup
Issued by NWS Springfield, MO

Home | Current Version | Previous Version | Text Only | Print | Product List | Glossary On
Versions: 1 2 3 4 5 6 7 8 9 10 11 12 13 14 15 16 17 18 19 20 21 22 23 24 25 26 27 28 29 30 31 32 33 34 35 36 37 38 39 40 41 42 43 44 45 46 47 48 49 50
000
NZUS99 KSGF 271407
HRRSGF

HOURLY WEATHER
NATIONAL WEATHER SERVICE SPRINGFIELD MO
800 AM CST MON FEB 27 2017

......SGF CWA......

CITY           SKY/WX    TMP DP  RH WIND       PRES   REMARKS
SPRINGFIELD    SUNNY     41  30  65 SE10      30.04R
JOPLIN         SUNNY     38  31  76 CALM      30.03R
WEST PLAINS    SUNNY     40  34  79 CALM      30.09R
ROLLA          SUNNY     39  33  79 S8        30.07R WCI  33
OSAGE BEACH    SUNNY     34  33  96 CALM      30.08R
BRANSON        SUNNY     39  32  75 E5        30.05S

......SURROUNDING SGF CWA......

CITY           SKY/WX    TMP DP  RH WIND       PRES   REMARKS
CHANUTE        MOSUNNY   33  30  88 E7        30.01S WCI  27
PARSONS        SUNNY     34  30  85 E5        30.02R WCI  30
COFFEYVILLE    MOSUNNY   33  31  92 NE5       30.02R FOG     WCI  29
EMPORIA        MOSUNNY   28  28 100 S6        30.00R FOG     WCI  22
GROVE OK       SUNNY     37  32  81 CALM      30.03S
ROGERS AR      SUNNY     41  36  82 E8        30.02S
SILOAM SPRINGS MOSUNNY   39  30  70 E6        30.02R WCI  35
HARRISON AR    SUNNY     37  32  82 SE6       30.05S WCI  32
NEAR YELLVILLE SUNNY     36  28  75 CALM      30.06R

......KANSAS AND MISSOURI......

CITY           SKY/WX    TMP DP  RH WIND       PRES   REMARKS
KANSAS CTY INT MOSUNNY   33  32  96 E6        30.02S FOG     WCI  28
DOWNTOWN KC    CLOUDY    29  29 100 NE3       30.04S FOG
COLUMBIA       SUNNY     36  34  92 SE8       30.08R WCI  30
SEDALIA        MOSUNNY   33  32  96 SE5       30.08R FOG     WCI  29
ST JOSEPH      FOG       27  25  92 S3        30.04R VSB<1/4
ST LOUIS       MOSUNNY   44  35  70 SE8       30.12R
SPIRIT OF STL  SUNNY     35  34  96 CALM      30.12R
KIRKSVILLE     FOG       28  28 100 CALM      30.08R VSB 1/4
WICHITA        MOSUNNY   37  31  78 E9        29.94S WCI  30
TOPEKA         FOG       28  28 100 E5        30.02R VSB 1/4 WCI  23
OLATHE         FOG       27  27 100 S6        30.03R VSB 1/4 WCI  20

......TENNESSEE......

CITY           SKY/WX    TMP DP  RH WIND       PRES   REMARKS
MEMPHIS        MOSUNNY   49  45  86 SE6       30.11R
NASHVILLE      CLOUDY    46  33  60 S6        30.21F

......ARKANSAS.......

CITY           SKY/WX    TMP DP  RH WIND       PRES   REMARKS
FAYETTEVILLE   MOSUNNY   33  33 100 CALM      30.03R
FT SMITH       SUNNY     44  37  76 E9        30.04S
LITTLE ROCK    CLOUDY    48  48 100 E6        30.09S FOG

......OKLAHOMA.......

CITY           SKY/WX    TMP DP  RH WIND       PRES   REMARKS
TULSA          CLOUDY    40  35  83 CALM      29.98S
PONCA CITY     CLOUDY    43  33  68 SE14      29.94F
MCALESTER      CLOUDY    52  42  69 E6        29.98R
OKLAHOMA CITY  CLOUDY    48  45  89 S10       29.92R FOG

......IOWA............

CITY           SKY/WX    TMP DP  RH WIND       PRES   REMARKS
DES MOINES     SUNNY     30  25  81 S5        30.03R WCI  25
QUAD CITIES    SUNNY     33  30  88 S3        30.10R

......ILLINOIS........

CITY           SKY/WX    TMP DP  RH WIND       PRES   REMARKS
QUINCY         SUNNY     36  33  89 SE7       30.09R WCI  30
CHICAGO        MOSUNNY   35  28  75 CALM      30.15R



USA.gov is the U.S. government's official web portal to all federal, state and local government web resources and services.